When you browse on this site, cookies collect data to enhance your experience and personalize the content and advertising you see.
Visit our Privacy Policy to learn more. By continuing to use the site, you agree to this use of cookies and data.
  • en France
  • Liste des pays
  • À 7 jours
  • Température de l'eau
  • Carte satellitaire
  • Carte météo
  • Widgets météo
  • user-avatar
    Se connecter

    Météo par heure à Mitu

    Ce jour, 17 Novembre, Samedi

    Heure Température Précipitation Vent Pression Humidité
    00:00 +23°C° 0 mm 0 m/s 737 mmHg 96%
    01:00 +24°C° 0 mm 1 m/s 737 mmHg 96%
    02:00 +24°C° 0.1 mm 1 m/s 737 mmHg 96%
    03:00 +22°C° 0.1 mm 0 m/s 737 mmHg 97%
    04:00 +22°C° 0.1 mm 0 m/s 737 mmHg 97%
    05:00 +23°C° 0 mm 0 m/s 737 mmHg 95%
    06:00 +23°C° 0 mm 0 m/s 738 mmHg 92%
    07:00 +24°C° 0 mm 0 m/s 738 mmHg 90%
    08:00 +25°C° 0.8 mm 0 m/s 738 mmHg 89%
    09:00 +26°C° 0.8 mm 0 m/s 738 mmHg 89%
    10:00 +30°C° 0.8 mm 1 m/s 739 mmHg 89%
    11:00 +31°C° 0.8 mm 1 m/s 738 mmHg 82%
    12:00 +32°C° 0.8 mm 1 m/s 737 mmHg 75%
    13:00 +33°C° 0.8 mm 1 m/s 737 mmHg 68%
    14:00 +31°C° 1.2 mm 1 m/s 736 mmHg 77%
    15:00 +30°C° 1.2 mm 1 m/s 736 mmHg 85%
    16:00 +29°C° 1.2 mm 1 m/s 735 mmHg 94%
    17:00 +28°C° 0.2 mm 1 m/s 736 mmHg 95%
    18:00 +25°C° 0.2 mm 0 m/s 736 mmHg 97%
    19:00 +24°C° 0.2 mm 0 m/s 736 mmHg 98%
    20:00 +24°C° 0 mm 0 m/s 737 mmHg 98%
    21:00 +23°C° 0 mm 0 m/s 737 mmHg 98%
    22:00 +23°C° 0 mm 0 m/s 738 mmHg 98%
    23:00 +23°C° 0 mm 0 m/s 738 mmHg 99%

    Demain, 18 Novembre, Dimanche

    Heure Température Précipitation Vent Pression Humidité
    00:00 +23°C° 0 mm 0 m/s 737 mmHg 99%
    01:00 +25°C° 0 mm 1 m/s 737 mmHg 99%
    02:00 +23°C° 0 mm 0 m/s 737 mmHg 99%
    03:00 +22°C° 0 mm 0 m/s 736 mmHg 99%
    04:00 +22°C° 0 mm 0 m/s 736 mmHg 99%
    05:00 +23°C° 0 mm 0 m/s 737 mmHg 98%
    06:00 +23°C° 0 mm 0 m/s 737 mmHg 97%
    07:00 +23°C° 0 mm 0 m/s 738 mmHg 97%
    08:00 +27°C° 0 mm 1 m/s 738 mmHg 85%
    09:00 +30°C° 0 mm 1 m/s 738 mmHg 74%
    10:00 +32°C° 0 mm 1 m/s 739 mmHg 62%
    11:00 +33°C° 0 mm 1 m/s 738 mmHg 58%
    12:00 +34°C° 0 mm 1 m/s 737 mmHg 54%
    13:00 +34°C° 0 mm 1 m/s 736 mmHg 50%
    14:00 +33°C° 0.3 mm 1 m/s 736 mmHg 59%
    15:00 +32°C° 0.3 mm 1 m/s 735 mmHg 68%
    16:00 +31°C° 0.3 mm 1 m/s 735 mmHg 77%
    17:00 +29°C° 0.7 mm 1 m/s 735 mmHg 84%
    18:00 +27°C° 0.7 mm 1 m/s 736 mmHg 90%
    19:00 +26°C° 0.7 mm 1 m/s 736 mmHg 96%
    20:00 +24°C° 0.1 mm 0 m/s 737 mmHg 96%
    21:00 +23°C° 0.1 mm 0 m/s 737 mmHg 97%
    22:00 +23°C° 0.1 mm 0 m/s 738 mmHg 97%
    23:00 +23°C° 0 mm 0 m/s 737 mmHg 97%

    Après-demain, 19 Novembre, Lundi

    Heure Température Précipitation Vent Pression Humidité
    00:00 +22°C° 0 mm 0 m/s 737 mmHg 98%
    01:00 +22°C° 0 mm 0 m/s 736 mmHg 98%
    02:00 +22°C° 0 mm 0 m/s 736 mmHg 98%
    03:00 +24°C° 0 mm 1 m/s 736 mmHg 98%
    04:00 +24°C° 0 mm 1 m/s 736 mmHg 99%
    05:00 +25°C° 0.1 mm 1 m/s 736 mmHg 98%
    06:00 +25°C° 0.1 mm 1 m/s 737 mmHg 96%
    07:00 +26°C° 0.1 mm 1 m/s 738 mmHg 95%
    08:00 +28°C° 0.3 mm 1 m/s 738 mmHg 86%
    09:00 +30°C° 0.3 mm 1 m/s 738 mmHg 77%
    10:00 +32°C° 0.3 mm 2 m/s 738 mmHg 68%
    11:00 +32°C° 1.1 mm 1 m/s 737 mmHg 70%
    12:00 +32°C° 1.1 mm 1 m/s 736 mmHg 72%
    13:00 +33°C° 1.1 mm 1 m/s 735 mmHg 75%
    14:00 +31°C° 1.3 mm 1 m/s 735 mmHg 79%
    15:00 +30°C° 1.3 mm 1 m/s 734 mmHg 84%
    16:00 +29°C° 1.3 mm 1 m/s 734 mmHg 88%
    17:00 +28°C° 0.4 mm 1 m/s 735 mmHg 91%
    18:00 +27°C° 0.4 mm 1 m/s 735 mmHg 94%
    19:00 +24°C° 0.4 mm 0 m/s 736 mmHg 96%
    20:00 +24°C° 0 mm 0 m/s 737 mmHg 96%
    21:00 +23°C° 0 mm 0 m/s 737 mmHg 96%
    22:00 +23°C° 0 mm 0 m/s 738 mmHg 96%
    23:00 +23°C° 0 mm 0 m/s 737 mmHg 96%

    20 Novembre, Mardi

    Heure Température Précipitation Vent Pression Humidité
    00:00 +23°C° 0 mm 0 m/s 736 mmHg 97%
    01:00 +23°C° 0 mm 0 m/s 736 mmHg 97%
    02:00 +23°C° 0 mm 0 m/s 736 mmHg 97%
    03:00 +23°C° 0 mm 0 m/s 736 mmHg 98%
    04:00 +22°C° 0 mm 0 m/s 736 mmHg 98%
    05:00 +23°C° 0.1 mm 0 m/s 736 mmHg 97%
    06:00 +24°C° 0.1 mm 0 m/s 737 mmHg 96%
    07:00 +24°C° 0.1 mm 0 m/s 738 mmHg 95%
    08:00 +25°C° 1.3 mm 0 m/s 738 mmHg 92%
    09:00 +28°C° 1.3 mm 1 m/s 738 mmHg 90%
    10:00 +30°C° 1.3 mm 1 m/s 738 mmHg 88%
    11:00 +31°C° 0.5 mm 1 m/s 738 mmHg 80%
    12:00 +32°C° 0.5 mm 1 m/s 737 mmHg 72%
    13:00 +33°C° 0.5 mm 1 m/s 736 mmHg 64%
    14:00 +33°C° 0.2 mm 1 m/s 735 mmHg 64%
    15:00 +32°C° 0.2 mm 1 m/s 735 mmHg 64%
    16:00 +32°C° 0.2 mm 1 m/s 735 mmHg 63%
    17:00 +30°C° 0.6 mm 1 m/s 735 mmHg 73%
    18:00 +26°C° 0.6 mm 0 m/s 736 mmHg 83%
    19:00 +24°C° 0.6 mm 0 m/s 737 mmHg 93%
    20:00 +24°C° 1.6 mm 0 m/s 737 mmHg 95%
    21:00 +24°C° 1.6 mm 0 m/s 738 mmHg 96%
    22:00 +24°C° 1.6 mm 0 m/s 738 mmHg 98%
    23:00 +23°C° 0.7 mm 0 m/s 738 mmHg 98%

    21 Novembre, Mercredi

    Heure Température Précipitation Vent Pression Humidité
    00:00 +23°C° 0.7 mm 0 m/s 737 mmHg 98%
    01:00 +23°C° 0.7 mm 0 m/s 736 mmHg 98%
    02:00 +23°C° 0.1 mm 0 m/s 736 mmHg 98%
    03:00 +23°C° 0.1 mm 0 m/s 736 mmHg 98%
    04:00 +23°C° 0.1 mm 0 m/s 737 mmHg 99%
    05:00 +23°C° 0.1 mm 0 m/s 737 mmHg 98%
    06:00 +23°C° 0.1 mm 0 m/s 738 mmHg 98%
    07:00 +24°C° 0.1 mm 0 m/s 739 mmHg 97%
    08:00 +25°C° 0.7 mm 0 m/s 739 mmHg 95%
    09:00 +26°C° 0.7 mm 0 m/s 739 mmHg 92%
    10:00 +27°C° 0.7 mm 0 m/s 739 mmHg 90%
    11:00 +27°C° 1.5 mm 0 m/s 738 mmHg 88%
    12:00 +28°C° 1.5 mm 0 m/s 738 mmHg 86%
    13:00 +28°C° 1.5 mm 0 m/s 737 mmHg 84%
    14:00 +28°C° 1.8 mm 0 m/s 736 mmHg 87%
    15:00 +27°C° 1.8 mm 0 m/s 736 mmHg 91%
    16:00 +26°C° 1.8 mm 0 m/s 736 mmHg 95%
    17:00 +25°C° 0.8 mm 0 m/s 736 mmHg 95%
    18:00 +24°C° 0.8 mm 0 m/s 737 mmHg 96%
    19:00 +23°C° 0.8 mm 0 m/s 737 mmHg 97%
    20:00 +23°C° 0.1 mm 0 m/s 738 mmHg 97%
    21:00 +23°C° 0.1 mm 0 m/s 738 mmHg 97%
    22:00 +23°C° 0.1 mm 0 m/s 738 mmHg 98%
    23:00 +23°C° 0.3 mm 0 m/s 738 mmHg 98%

    22 Novembre, Jeudi

    Heure Température Précipitation Vent Pression Humidité
    00:00 +23°C° 0.3 mm 0 m/s 737 mmHg 98%
    01:00 +22°C° 0.3 mm 0 m/s 737 mmHg 98%
    02:00 +22°C° 0.1 mm 0 m/s 737 mmHg 98%
    03:00 +22°C° 0.1 mm 0 m/s 737 mmHg 98%
    04:00 +22°C° 0.1 mm 0 m/s 737 mmHg 99%
    05:00 +22°C° 0.1 mm 0 m/s 737 mmHg 98%
    06:00 +23°C° 0.1 mm 0 m/s 738 mmHg 98%
    07:00 +23°C° 0.1 mm 0 m/s 738 mmHg 97%
    08:00 +25°C° 0.6 mm 0 m/s 738 mmHg 91%
    09:00 +27°C° 0.6 mm 0 m/s 738 mmHg 86%
    10:00 +28°C° 0.6 mm 0 m/s 738 mmHg 80%
    11:00 +29°C° 0.9 mm 0 m/s 737 mmHg 76%
    12:00 +32°C° 0.9 mm 1 m/s 736 mmHg 73%
    13:00 +32°C° 0.9 mm 1 m/s 736 mmHg 70%
    14:00 +31°C° 1.2 mm 1 m/s 735 mmHg 75%
    15:00 +31°C° 1.2 mm 1 m/s 735 mmHg 81%
    16:00 +28°C° 1.2 mm 0 m/s 734 mmHg 86%
    17:00 +27°C° 0.7 mm 0 m/s 735 mmHg 89%
    18:00 +25°C° 0.7 mm 0 m/s 736 mmHg 92%
    19:00 +24°C° 0.7 mm 0 m/s 736 mmHg 95%
    20:00 +24°C° 1.8 mm 0 m/s 737 mmHg 96%
    21:00 +23°C° 1.8 mm 0 m/s 737 mmHg 97%
    22:00 +23°C° 1.8 mm 0 m/s 737 mmHg 98%
    23:00 +23°C° 0.7 mm 0 m/s 737 mmHg 98%
    Voir plus